Home   Weather   Bensheim   Past weeks

Flag for Germany Past Weather in Bensheim, Hesse, Germany — Yesterday and Last 2 Weeks

Now
32 °F

Clear.


Feels Like: 27 °F
Forecast: 23 / 37 °F
Wind: 5 mph from Northeast

Location: Mannheim City

Current Time: Dec 3, 2016 at 11:07:29 pm

Latest Report: Dec 3, 2016 at 7:50 pm


Visibility: 10 mi

Pressure: 30.30 "Hg

Humidity: 75%

Dew Point: 25 °F

Location of BensheimLocation

Past Weather in Bensheim — Graph

°F

Bensheim Temperature Yesterday

Maximum temperature yesterday: 43 °F (at 12:50 pm)
Minimum temperature yesterday: 34 °F (at 11:20 pm)
Average temperature yesterday: 40 °F

High & Low Weather Summary for the Past Weeks

 TemperatureHumidityPressure
High61 °F (Nov 20, 2:50 pm)100% (Nov 19, 8:50 am)30.57 "Hg (Nov 19, 8:50 am)
Low21 °F (Nov 30, 5:20 am)45% (Nov 20, 1:20 pm)29.59 "Hg (Nov 20, 10:20 am)
Average43 °F80%30.10 "Hg
* Reported Nov 18 7:20 pm — Dec 3 7:50 pm, Bensheim, Weather by CustomWeather, © 2016

Note: Actual official high and low records may vary slightly from our data, if they occured in-between our weather recording intervals... More about our weather records

Advertising

Bensheim Weather History for the Previous 24 Hours

Scroll right to see more
 ConditionsComfort  
Time TempWeatherWind HumidityBarometerVisibility
7:50 pm
Sat, Dec 3
32 °FClear.5 mph75%30.30 "Hg10 mi
7:20 pm32 °FPassing clouds.5 mph75%30.27 "HgN/A
6:50 pm34 °FClear.6 mph70%30.27 "Hg10 mi
6:20 pm34 °FClear.6 mph75%30.27 "Hg10 mi
5:50 pm34 °FClear.6 mph75%30.27 "Hg10 mi
5:20 pm36 °FClear.5 mph70%30.24 "Hg10 mi
4:50 pm37 °FClear.8 mph65%30.24 "Hg10 mi
4:20 pm37 °FSunny.7 mph70%30.24 "Hg10 mi
3:50 pm39 °FSunny.7 mph70%30.24 "Hg10 mi
3:20 pm41 °FSunny.7 mph66%30.24 "Hg10 mi
2:50 pm41 °FSunny.6 mph66%30.24 "Hg10 mi
2:20 pm41 °FPassing clouds.6 mph66%30.24 "HgN/A
1:50 pm39 °FPassing clouds.6 mph70%30.24 "HgN/A
1:20 pm39 °FSunny.8 mph70%30.27 "Hg10 mi
12:50 pm39 °FSunny.6 mph70%30.27 "Hg10 mi
12:20 pm37 °FPassing clouds.5 mph70%30.27 "HgN/A
11:50 am37 °FSunny.6 mph75%30.27 "Hg10 mi
11:20 am36 °FPassing clouds.5 mph81%30.27 "HgN/A
10:50 am34 °FSunny.3 mph87%30.27 "Hg10 mi
10:20 am32 °FSunny.2 mph93%30.27 "Hg10 mi
9:50 am30 °FSunny.2 mph100%30.27 "Hg10 mi
9:20 am28 °FSunny.3 mph100%30.27 "Hg10 mi
8:50 am27 °FSunny.2 mph100%30.27 "Hg10 mi
8:20 am27 °FSunny.2 mph100%30.24 "Hg10 mi
7:50 am27 °FClear.1 mph100%30.24 "Hg10 mi
7:20 am28 °FClear.2 mph100%30.24 "Hg10 mi
11:50 pm
Fri, Dec 2
34 °FClear.7 mph100%30.21 "Hg6 mi
11:20 pm34 °FClear.3 mph100%30.21 "Hg6 mi
Weather by CustomWeather, © 2016

See weather overviewHow to use our weather pages